Tracking 35048 objects as of 19-Aug-2026
HD Live streaming from Space Station
objects crossing your sky now

KSM1-C

Track KSM1-C now!
10-day predictions
KSM1-C is classified as:


NORAD ID: 46906
Int'l Code: 2020-081B
Launch date: November 7, 2020
Source: Luxembourg (LUXE)
Launch site: SRIHARIKOTA (SRI)

Uplink (MHz):
Downlink (MHz): 401.120
Beacon (MHz):
Mode: 9k6 FSK
Call sign:
Status: Active

Your satellite tracking list
Your tracking list is empty




NASA's NSSDC Master Catalog

Two Line Element Set (TLE):
1 46906U 20081B   26230.92241670  .00007756  00000-0  28369-3 0  9996
2 46906  36.8941  31.3559 0002894   1.6739 358.4020 15.27637591318766
Source of the keplerian elements: AFSPC